Flag for United Kingdom Weather past 2 weeks in Belfast, Northern Ireland, United Kingdom

Now
54 °F

Passing clouds.


Feels Like: 52 °F
Forecast: 50 / 62 °F
Wind: 7 mph from Southwest

Location: Belfast / Aldergrove Airport

Current Time: Aug 5, 2015 at 3:31:49 AM

Latest Report: Aug 5, 2015 at 2:50 AM


Visibility: N/A

Pressure: 29.74 "Hg

Humidity: 88%

Dew point: 50 °F

Location of BelfastLocation

Historic Weather in Belfast — Graph

°F

Belfast temperature yesterday

Maximum temperature yesterday: 63 °F (at 3:50 PM)
Minimum temperature yesterday: 55 °F (at 12:50 AM)
Average temperature yesterday: 58 °F

Past Weeks' High & Low Weather Summary

 TemperatureHumidityPressure
High64 °F (Aug 3, 2:20 PM)100% (Jul 21, 3:50 AM)30.12 "Hg (Jul 21, 3:50 AM)
Low43 °F (Jul 25, 5:20 AM)59% (Jul 23, 3:20 PM)29.36 "Hg (Jul 26, 6:20 PM)
Average55 °F86%29.79 "Hg
* Reported Jul 21 2:20 AM — Aug 5 2:20 AM, Belfast, Weather by CustomWeather, © 2015

Note: Actual official high and low records may vary slightly from our data, if they occured in-between our weather recording intervals... More about our weather records

Advertising

Belfast weather history for previous 24 hours

 ConditionsComfort  
Time TempWeatherWind HumidityBarometerVisibility
2:20 AM
Wed, Aug 5
54 °FPassing clouds.6 mph88%29.74 "HgN/A
1:50 AM54 °FPassing clouds.6 mph88%29.74 "HgN/A
1:20 AM54 °FPassing clouds.7 mph88%29.74 "HgN/A
12:50 AM54 °FClear.9 mph88%29.74 "Hg10 mi
12:20 AM54 °FClear.9 mph88%29.74 "Hg10 mi
11:20 PM
Tue, Aug 4
55 °FClear.9 mph82%29.74 "Hg10 mi
10:50 PM55 °FClear.14 mph82%29.71 "Hg10 mi
9:50 PM57 °FPassing clouds.10 mph77%29.71 "HgN/A
9:20 PM59 °FScattered clouds.9 mph72%29.68 "HgN/A
8:50 PM59 °FScattered clouds.14 mph77%29.68 "HgN/A
8:20 PM59 °FScattered clouds.16 mph72%29.68 "HgN/A
7:50 PM61 °FPassing clouds.14 mph72%29.68 "HgN/A
7:20 PM61 °FScattered clouds.13 mph77%29.65 "HgN/A
6:50 PM59 °FScattered clouds.14 mph82%29.65 "HgN/A
6:20 PM61 °FSprinkles. Broken clouds.14 mph77%29.65 "HgN/A
5:50 PM63 °FScattered clouds.16 mph68%29.62 "HgN/A
5:20 PM61 °FScattered clouds.17 mph77%29.62 "HgN/A
4:50 PM61 °FScattered clouds.20 mph77%29.62 "HgN/A
4:20 PM63 °FScattered clouds.21 mph73%29.62 "HgN/A
3:50 PM63 °FScattered clouds.20 mph73%29.62 "HgN/A
3:20 PM61 °FBroken clouds.18 mph77%29.59 "HgN/A
2:50 PM61 °FBroken clouds.16 mph77%29.59 "HgN/A
2:20 PM61 °FBroken clouds.16 mph72%29.59 "HgN/A
1:50 PM61 °FBroken clouds.18 mph77%29.59 "HgN/A
1:20 PM59 °FPartly sunny.18 mph77%29.56 "HgN/A
12:50 PM59 °FBroken clouds.20 mph82%29.56 "HgN/A
12:20 PM59 °FPartly sunny.17 mph82%29.56 "HgN/A
11:50 AM59 °FPartly sunny.18 mph82%29.53 "HgN/A
11:20 AM59 °FPartly sunny.18 mph82%29.53 "HgN/A
10:50 AM59 °FPartly sunny.17 mph82%29.50 "HgN/A
10:20 AM59 °FPartly sunny.17 mph82%29.50 "HgN/A
9:50 AM59 °FPartly sunny.20 mph82%29.50 "HgN/A
9:20 AM57 °FPartly sunny.17 mph88%29.47 "HgN/A
8:50 AM57 °FPartly sunny.13 mph88%29.47 "HgN/A
8:20 AM57 °FPartly sunny.14 mph88%29.47 "HgN/A
7:50 AM57 °FPartly sunny.14 mph88%29.45 "HgN/A
7:20 AM57 °FPartly sunny.14 mph88%29.45 "HgN/A
6:50 AM57 °FPartly sunny.14 mph94%29.45 "HgN/A
6:20 AM55 °FPartly cloudy.14 mph100%29.42 "HgN/A
5:50 AM55 °FPassing clouds.14 mph100%29.42 "HgN/A
5:20 AM55 °FPassing clouds.15 mph94%29.39 "HgN/A
4:50 AM55 °FPartly cloudy.16 mph94%29.39 "HgN/A
4:20 AM55 °FLight rain. Passing clouds.14 mph94%29.39 "HgN/A
3:50 AM55 °FLight rain. Passing clouds.15 mph88%29.39 "HgN/A
3:20 AM55 °FMostly cloudy.16 mph88%29.42 "HgN/A
Weather by CustomWeather, © 2015

See weather overviewHow to use our weather pages